Location: Dominguez Junction
(33.8634°N, 118.2179°W)
Time: 14:51:48
(UTC+00:00)

Daily predictions for brighter satellites

Satellite Brightness Start Highest point End
(mag) Time Altitude Azimuth Time Altitude Azimuth Time Altitude Azimuth
Cosmos 1092 Rocket 4.5 12:00:09 10° S 12:06:09 58° E 12:12:14 10° NNE
ERS-2 3.8 12:05:09 10° SE 12:08:24 32° ENE 12:10:47 16° NNE
Nadezhda 4 Rocket 3.8 12:02:48 10° S 12:08:54 77° W 12:15:03 10° N
CZ-4B R/B 3.8 12:06:21 10° SE 12:09:08 23° ENE 12:11:56 10° NNE
Cosmos 44 Rocket 3.5 12:10:28 60° SSW 12:10:28 60° SSW 12:14:54 10° SSE
Cosmos 2082 Rocket 2.0 12:09:55 70° WSW 12:10:20 74° WNW 12:15:58 10° NNE
Cosmos 2369 4.1 12:08:19 13° NNW 12:13:16 60° ENE 12:18:49 10° SSE
Meteor 1-31 Rocket 4.4 12:09:49 10° NNE 12:13:27 34° E 12:17:01 10° SSE
Meteor 1-24 Rocket 3.9 12:08:06 10° S 12:13:38 71° E 12:19:24 10° NNE
GOES 2 Rocket 4.1 12:16:02 42° SSW 12:17:10 49° S 12:23:29 10° E
DELTA 2 R/B (1) 3.8 12:19:26 50° SW 12:19:54 51° SSW 12:25:19 10° SE
Cosmos 1892 Rocket 4.0 12:16:56 10° S 12:21:11 59° E 12:25:29 10° NNE
Gblst 52 Del rocket 4.2 12:24:23 33° SW 12:27:00 81° SE 12:33:00 10° NE
ALOS 2.2 12:23:36 10° NNE 12:28:17 82° E 12:32:57 10° S
Cosmos 1302 Rocket 4.5 12:30:05 40° WSW 12:30:05 40° WSW 12:34:17 10° S
Cosmos 1697 Rocket 2.6 12:31:55 18° NNW 12:36:15 71° WSW 12:41:51 10° S
Abrixas rocket 4.3 12:38:21 15° NNE 12:38:53 16° NNE 12:40:43 10° ENE
FENGYUN 3A 3.6 12:37:38 10° N 12:43:03 71° WNW 12:48:27 10° SSW
ATLAS CENTAUR R/B 2.2 12:41:02 10° S 12:44:55 47° ESE 12:48:37 10° NE
ARGOS Delta rocket 4.3 12:40:54 10° NNE 12:46:23 80° E 12:51:51 10° S
ATLAS 3B R/B 3.3 12:44:55 28° WNW 12:46:28 31° NW 12:52:16 10° NNE
ADEOS Rocket 3.2 12:44:02 10° SSW 12:49:02 36° W 12:54:06 10° NNW
ADEOS 3.6 12:44:30 10° N 12:49:38 57° WNW 12:54:43 10° SSW
Meteor 2-5 Rocket 4.1 12:45:31 10° SW 12:50:46 39° WNW 12:56:09 10° N
Cosmos 1400 Rocket 2.7 12:47:34 10° N 12:51:30 86° E 12:55:21 10° S
Cosmos 1300 2.5 12:47:53 10° NNW 12:51:41 67° W 12:55:27 10° S
Cosmos 1428 Rocket 4.4 12:46:11 10° S 12:52:25 81° W 12:58:37 10° N
Aureole 3 4.2 12:52:52 10° N 12:57:36 81° E 13:03:39 10° S
Cosmos 1980 Rocket 2.1 12:54:04 10° NNW 12:59:42 88° WSW 13:05:18 10° SSE
CZ-4B R/B 4.0 12:59:09 10° N 13:03:05 48° WNW 13:06:49 10° SSW
Cosmos 2228 3.6 13:00:47 10° NNW 13:04:47 35° W 13:08:47 10° SSW
Cosmos 1726 Rocket 3.7 13:00:40 10° NNW 13:04:59 51° W 13:09:18 10° SSW
Cosmos 2026 Rocket 4.1 12:59:22 10° SSW 13:05:37 59° W 13:11:56 10° N
Cosmos 1992 Rocket 4.1 13:01:02 10° NNW 13:06:04 51° WSW 13:11:05 10° S
OAO 1 4.5 13:03:35 20° W 13:07:28 89° N 13:12:59 10° E
CZ-2C R/B 4.4 13:15:54 10° NW 13:16:07 10° NW 13:16:07 10° NW
Cosmos 614 Rocket 4.3 13:12:54 10° SW 13:17:43 40° WNW 13:22:33 10° N
Meteor PRIRODA 3.5 13:14:42 10° N 13:18:21 69° WNW 13:21:59 10° SSW
H-2A R/B 3.7 13:14:58 10° NNE 13:18:44 53° E 13:22:30 10° S
Meteor 2-10 Rocket 3.8 13:14:25 10° N 13:19:26 71° E 13:24:36 10° SSE
Cosmos 1484 Rocket 4.1 13:19:40 10° NNW 13:22:19 18° WNW 13:24:57 10° WSW
X-37B 3.5 13:20:37 10° S 13:22:46 17° SE 13:24:54 10° E
Cosmos 1689 Rocket 1.9 13:21:07 10° S 13:24:02 71° W 13:26:57 10° NNW
Cosmos 1315 Rocket 3.3 13:21:00 10° N 13:25:06 68° E 13:29:12 10° SSE
COSMO-SKYMED 1 2.5 13:22:10 10° S 13:26:28 70° WSW 13:30:49 10° NNW
Cosmos 676 Rocket 4.4 13:23:28 10° S 13:28:38 69° ESE 13:33:47 10° NNE
Uosat 12 SS-18 rocket 4.3 13:26:15 10° SW 13:31:09 55° WNW 13:35:29 10° NNE
Cosmos 2322 Rocket 3.7 13:27:23 10° N 13:32:36 37° ENE 13:37:45 10° SE
YAOGAN 6 4.2 13:29:15 10° NNE 13:32:43 40° E 13:36:07 10° S
Cosmos 2278 4.1 13:27:32 10° NW 13:32:47 41° WSW 13:38:02 10° S
SAR-Lupe-4 4.4 13:31:31 10° SSW 13:34:40 29° W 13:37:50 10° NW
Cosmos 1455 2.4 13:35:16 10° N 13:39:08 80° E 13:42:59 10° S
CZ-4B R/B 3.2 13:39:24 10° SW 13:41:19 14° W 13:43:15 10° WNW
ERS-2 4.1 13:40:41 10° WSW 13:42:00 12° W 13:43:18 10° WNW
H-2A R/B 2.7 13:37:49 10° NNE 13:42:07 79° ESE 13:46:14 10° S
